Weather in Pershotravneve

Ukraine / Dnipropetrovsk Region     47°49′57″N   36°19′11″E
temp.,
°C
wind,
m/s
gust,
m/s
humid.,
%
clouds,
%
prec.,
mm/h
press.,
hPa
HPBL,
m
21 april, wed
wed2100:00+8wsw61195100 0.3 1006547
03:00+8wsw61294100 0.4 1009414
06:00+7wsw51191100 0.0 1011302
09:00+11wsw6969100 0.0 1014781
12:00+14wsw795275 0.0 10151824
15:00+16w794271 0.0 10152332
18:00+14sw365487 0.1 1016527
21:00+10ssw3778100 0.4 1018136
22 april, thu
thu2200:00+8ssw489080 0.0 1019194
03:00+7sw36945 0.0 1020122
06:00+6ssw34935 0.0 102175
09:00+12sw34705 0.0 1021552
12:00+16ssw445244 0.1 10211662
15:00+16sw4446100 0.2 10211699
18:00+13ssw576878 0.0 1021321
21:00+12ssw597195 0.0 1022294
23 april, fri
fri2300:00+10sw4978100 0.1 1021273
03:00+9ssw378110 0.1 1021228
06:00+7ssw35911 0.0 102299
09:00+13ssw56640 0.0 1021648
12:00+16sw674783 0.0 10201848
15:00+18ssw7840100 0.0 10182470
18:00+15s7853100 0.0 10171375
21:00+11s61270100 0.0 1017497
24 april, sat
sat2400:00+10ssw51075100 0.1 1016409
03:00+10sw6118246 0.2 1015569
06:00+7nw6889100 0.5 1015603
09:00+8nw566832 0.6 1017979
12:00+12w68435 0.0 10171879
15:00+13wsw810409 0.0 10172223
18:00+11w7105481 0.1 10181546
21:00+7wsw476519 0.2 1019185
25 april, sun
sun2500:00+5w396432 0.0 1020249
03:00+3w367382 0.0 1020142
06:00+3w357697 0.0 1021129
09:00+8w575021 0.0 10201179
12:00+11w573999 0.0 10202030
15:00+12w6733100 0.0 10192412
18:00+11wnw453867 0.0 10182208
21:00+6wsw35534 0.0 101970